Location: Asni�res
(49.1337°N, 2.3555°E)
Time: 19:41:01
(UTC+00:00)

Cosmos 1535 Rocket - Pass Details

Date: 27 May 2022
Orbit: 949 x 1003 km, 83.0° (Epoch: 24 June)

Event Time Altitude Azimuth Distance (km) Brightness Sun altitude
Rises 02:01:24 0° 3° (N) 3,654 8.6 -13.6°
Reaches altitude 10° 02:07:19 10° 47° (NE) 2,717 8.2 -13.0°
Maximum altitude 02:07:50 10° 52° (NE) 2,711 8.1 -13.0°
Drops below altitude 10° 02:08:22 10° 57° (ENE) 2,719 8.0 -12.9°
Sets 02:14:18 0° 101° (E) 3,678 7.9 -12.4°
